| time (UTC) | temp F | wind direction | speed MPH | gust MPH | rain 1hr in | rain 24hr in | rain mn in | humidity % | barometer mb |
| 20260510160511 | 79 | 30 | 2.0 | 6.0 | 0.00 | 0.00 | 0.00 | 43 | 1014.3 |
| 20260510160012 | 80 | 30 | 1.0 | 5.0 | 0.00 | 0.00 | 0.00 | 41 | 1014.4 |
| 20260510155742 | 79 | 157 | 2.0 | 6.0 | 0.00 | 0.00 | 0.00 | 48 | 1014.5 |
| 20260510155010 | 79 | 46 | 2.0 | 6.0 | 0.00 | 0.00 | 0.00 | 43 | 1014.5 |
| 20260510154511 | 79 | 349 | 3.0 | 5.0 | 0.00 | 0.00 | 0.00 | 42 | 1014.4 |
| 20260510154011 | 80 | 327 | 2.0 | 5.0 | 0.00 | 0.00 | 0.00 | 45 | 1014.3 |
| 20260510153743 | 80 | 17 | 2.0 | 5.0 | 0.00 | 0.00 | 0.00 | 48 | 1014.4 |
| 20260510153009 | 79 | 346 | 3.0 | 5.0 | 0.00 | 0.00 | 0.00 | 48 | 1014.4 |
| 20260510152509 | 78 | 336 | 4.0 | 9.0 | 0.00 | 0.00 | 0.00 | 43 | 1014.5 |
| 20260510152009 | 78 | 38 | 4.0 | 9.0 | 0.00 | 0.00 | 0.00 | 44 | 1014.4 |
| 20260510151509 | 79 | 333 | 3.0 | 9.0 | 0.00 | 0.00 | 0.00 | 44 | 1014.5 |
| 20260510151008 | 78 | 30 | 2.0 | 5.0 | 0.00 | 0.00 | 0.00 | 45 | 1014.5 |
| 20260510150509 | 78 | 74 | 1.0 | 4.0 | 0.00 | 0.00 | 0.00 | 46 | 1014.5 |
| 20260510150010 | 78 | 180 | 1.0 | 3.0 | 0.00 | 0.00 | 0.00 | 48 | 1014.4 |
| 20260510145506 | 77 | 355 | 1.0 | 3.0 | 0.00 | 0.00 | 0.00 | 54 | 1014.4 |
| 20260510145008 | 77 | 355 | 1.0 | 3.0 | 0.00 | 0.00 | 0.00 | 54 | 1014.5 |
| 20260510144507 | 78 | 36 | 1.0 | 5.0 | 0.00 | 0.00 | 0.00 | 54 | 1014.6 |
| 20260510144007 | 78 | 63 | 2.0 | 5.0 | 0.00 | 0.00 | 0.00 | 50 | 1014.6 |
| 20260510143502 | 77 | 355 | 3.0 | 5.0 | 0.00 | 0.00 | 0.00 | 50 | 1014.5 |
| 20260510143002 | 76 | 25 | 2.0 | 6.0 | 0.00 | 0.00 | 0.00 | 52 | 1014.4 |
| 20260510142502 | 76 | 53 | 2.0 | 6.0 | 0.00 | 0.00 | 0.00 | 51 | 1014.4 |
| 20260510142000 | 76 | 310 | 2.0 | 5.0 | 0.00 | 0.00 | 0.00 | 54 | 1014.4 |
| 20260510141502 | 76 | 13 | 2.0 | 7.0 | 0.00 | 0.00 | 0.00 | 54 | 1014.3 |
| 20260510141001 | 75 | 348 | 2.0 | 7.0 | 0.00 | 0.00 | 0.00 | 58 | 1014.1 |
| 20260510140501 | 75 | 30 | 2.0 | 5.0 | 0.00 | 0.00 | 0.00 | 60 | 1014.1 |
| 20260510140232 | 74 | 48 | 2.0 | 6.0 | 0.00 | 0.00 | 0.00 | 63 | 1014.1 |
| 20260510135501 | 74 | 344 | 2.0 | 6.0 | 0.00 | 0.00 | 0.00 | 61 | 1014.1 |
| 20260510135000 | 74 | 5 | 1.0 | 5.0 | 0.00 | 0.00 | 0.00 | 61 | 1014.1 |
| 20260510134502 | 73 | 30 | 1.0 | 5.0 | 0.00 | 0.00 | 0.00 | 65 | 1014.1 |
| 20260510133958 | 72 | 253 | 1.0 | 4.0 | 0.00 | 0.00 | 0.00 | 65 | 1014.0 |
| 20260510133458 | 72 | 343 | 1.0 | 4.0 | 0.00 | 0.01 | 0.00 | 66 | 1013.8 |
| 20260510132959 | 71 | 11 | 2.0 | 4.0 | 0.00 | 0.01 | 0.00 | 67 | 1013.8 |
| 20260510132457 | 71 | 0 | 1.0 | 4.0 | 0.00 | 0.01 | 0.00 | 69 | 1013.9 |
| 20260510131954 | 71 | 34 | 0.0 | 3.0 | 0.00 | 0.01 | 0.00 | 72 | 1013.8 |
| 20260510131455 | 70 | 34 | 0.0 | 2.0 | 0.00 | 0.01 | 0.00 | 75 | 1013.8 |
| 20260510130955 | 70 | 321 | 0.0 | 2.0 | 0.00 | 0.01 | 0.00 | 75 | 1013.8 |
| 20260510130503 | 69 | 327 | 0.0 | 1.0 | 0.00 | 0.01 | 0.00 | 77 | 1013.8 |
| 20260510125951 | 68 | 0 | 0.0 | 2.0 | 0.00 | 0.01 | 0.00 | 79 | 1013.9 |
| 20260510125450 | 67 | 0 | 0.0 | 2.0 | 0.00 | 0.01 | 0.00 | 80 | 1013.8 |
| 20260510124950 | 66 | 325 | 0.0 | 2.0 | 0.00 | 0.01 | 0.00 | 82 | 1013.7 |
| 20260510124449 | 66 | 86 | 0.0 | 2.0 | 0.00 | 0.01 | 0.00 | 84 | 1013.6 |
| 20260510123950 | 65 | 355 | 0.0 | 1.0 | 0.00 | 0.01 | 0.00 | 87 | 1013.7 |
| 20260510123449 | 64 | 106 | 0.0 | 0.0 | 0.00 | 0.01 | 0.00 | 88 | 1013.7 |
| 20260510123219 | 64 | 224 | 0.0 | 0.0 | 0.00 | 0.01 | 0.00 | 88 | 1013.7 |
| 20260510122448 | 63 | 40 | 0.0 | 0.0 | 0.00 | 0.01 | 0.00 | 87 | 1013.6 |
| 20260510121947 | 63 | 40 | 0.0 | 0.0 | 0.00 | 0.01 | 0.00 | 88 | 1013.6 |
| 20260510121447 | 63 | 66 | 0.0 | 0.0 | 0.00 | 0.01 | 0.00 | 88 | 1013.6 |
| 20260510120947 | 62 | 63 | 0.0 | 0.0 | 0.00 | 0.01 | 0.00 | 87 | 1013.5 |
| 20260510120445 | 62 | 172 | 0.0 | 0.0 | 0.00 | 0.01 | 0.00 | 87 | 1013.5 |
| 20260510115946 | 62 | 172 | 0.0 | 0.0 | 0.00 | 0.01 | 0.00 | 87 | 1013.4 |
| 20260510115445 | 62 | 172 | 0.0 | 0.0 | 0.00 | 0.01 | 0.00 | 87 | 1013.3 |
| 20260510114940 | 61 | 172 | 0.0 | 0.0 | 0.00 | 0.02 | 0.00 | 87 | 1013.5 |
| 20260510114441 | 61 | 172 | 0.0 | 0.0 | 0.00 | 0.02 | 0.00 | 86 | 1013.4 |
| 20260510113940 | 61 | 172 | 0.0 | 0.0 | 0.00 | 0.02 | 0.00 | 86 | 1013.2 |
| 20260510113441 | 61 | 172 | 0.0 | 0.0 | 0.00 | 0.02 | 0.00 | 86 | 1013.2 |
| 20260510112940 | 60 | 172 | 0.0 | 0.0 | 0.00 | 0.02 | 0.00 | 86 | 1013.2 |
| 20260510112438 | 60 | 172 | 0.0 | 0.0 | 0.00 | 0.02 | 0.00 | 86 | 1013.1 |
| 20260510111939 | 60 | 172 | 0.0 | 0.0 | 0.00 | 0.02 | 0.00 | 85 | 1013.1 |
| 20260510111440 | 60 | 172 | 0.0 | 0.0 | 0.00 | 0.02 | 0.00 | 85 | 1012.9 |
| 20260510110937 | 60 | 172 | 0.0 | 0.0 | 0.00 | 0.02 | 0.00 | 85 | 1012.9 |
| 20260510110437 | 60 | 172 | 0.0 | 0.0 | 0.00 | 0.02 | 0.00 | 85 | 1012.7 |
| 20260510105936 | 60 | 172 | 0.0 | 0.0 | 0.00 | 0.02 | 0.00 | 85 | 1012.6 |
| 20260510105436 | 60 | 172 | 0.0 | 0.0 | 0.00 | 0.02 | 0.00 | 84 | 1012.6 |
| 20260510104936 | 60 | 172 | 0.0 | 0.0 | 0.00 | 0.02 | 0.00 | 84 | 1012.5 |
| 20260510104435 | 60 | 172 | 0.0 | 0.0 | 0.00 | 0.02 | 0.00 | 84 | 1012.5 |
| 20260510103935 | 60 | 172 | 0.0 | 0.0 | 0.00 | 0.02 | 0.00 | 84 | 1012.3 |
| 20260510103428 | 60 | 172 | 0.0 | 0.0 | 0.00 | 0.02 | 0.00 | 84 | 1012.2 |
| 20260510102921 | 60 | 172 | 0.0 | 0.0 | 0.00 | 0.02 | 0.00 | 84 | 1012.2 |
| 20260510102415 | 60 | 172 | 0.0 | 0.0 | 0.00 | 0.02 | 0.00 | 84 | 1012.2 |
| 20260510101909 | 60 | 172 | 0.0 | 0.0 | 0.00 | 0.02 | 0.00 | 84 | 1012.1 |
| 20260510101403 | 60 | 172 | 0.0 | 0.0 | 0.00 | 0.02 | 0.00 | 84 | 1012.1 |
| 20260510100900 | 60 | 172 | 0.0 | 0.0 | 0.00 | 0.02 | 0.00 | 84 | 1011.9 |
| 20260510100853 | 60 | 172 | 0.0 | 0.0 | 0.00 | 0.02 | 0.00 | 84 | 1011.9 |
| 20260510095845 | 60 | 172 | 0.0 | 0.0 | 0.00 | 0.02 | 0.00 | 84 | 1011.8 |
| 20260510095339 | 60 | 172 | 0.0 | 0.0 | 0.00 | 0.02 | 0.00 | 84 | 1011.8 |
| 20260510094833 | 60 | 172 | 0.0 | 0.0 | 0.00 | 0.02 | 0.00 | 83 | 1011.7 |
| 20260510094327 | 60 | 172 | 0.0 | 0.0 | 0.00 | 0.02 | 0.00 | 83 | 1011.6 |
| 20260510093821 | 60 | 172 | 0.0 | 0.0 | 0.00 | 0.02 | 0.00 | 83 | 1011.6 |
| 20260510093546 | 60 | 172 | 0.0 | 0.0 | 0.00 | 0.02 | 0.00 | 84 | 1011.5 |
| 20260510092809 | 60 | 172 | 0.0 | 0.0 | 0.00 | 0.02 | 0.00 | 84 | 1011.6 |
| 20260510092306 | 60 | 172 | 0.0 | 0.0 | 0.00 | 0.02 | 0.00 | 84 | 1011.6 |
| 20260510091757 | 60 | 172 | 0.0 | 0.0 | 0.00 | 0.02 | 0.00 | 84 | 1011.6 |
| 20260510091251 | 60 | 172 | 0.0 | 0.0 | 0.00 | 0.02 | 0.00 | 84 | 1011.6 |
| 20260510091015 | 61 | 172 | 0.0 | 0.0 | 0.00 | 0.02 | 0.00 | 84 | 1011.5 |
| 20260510090239 | 61 | 172 | 0.0 | 0.0 | 0.00 | 0.02 | 0.00 | 84 | 1011.5 |
| 20260510085733 | 61 | 172 | 0.0 | 0.0 | 0.00 | 0.02 | 0.00 | 84 | 1011.4 |
| 20260510085227 | 61 | 172 | 0.0 | 0.0 | 0.00 | 0.02 | 0.00 | 84 | 1011.3 |
| 20260510084721 | 61 | 172 | 0.0 | 0.0 | 0.00 | 0.02 | 0.00 | 84 | 1011.3 |
| 20260510084215 | 61 | 172 | 0.0 | 0.0 | 0.00 | 0.02 | 0.00 | 84 | 1011.3 |
| 20260510083709 | 61 | 172 | 0.0 | 0.0 | 0.00 | 0.02 | 0.00 | 84 | 1011.5 |
| 20260510083203 | 61 | 172 | 0.0 | 0.0 | 0.00 | 0.02 | 0.00 | 84 | 1011.4 |
| 20260510082657 | 61 | 172 | 0.0 | 0.0 | 0.00 | 0.02 | 0.00 | 84 | 1011.5 |
| 20260510082151 | 61 | 172 | 0.0 | 0.0 | 0.00 | 0.02 | 0.00 | 84 | 1011.4 |
| 20260510081645 | 61 | 172 | 0.0 | 0.0 | 0.00 | 0.02 | 0.00 | 83 | 1011.4 |
| 20260510081139 | 61 | 172 | 0.0 | 0.0 | 0.00 | 0.02 | 0.00 | 83 | 1011.4 |
| 20260510080633 | 61 | 172 | 0.0 | 0.0 | 0.00 | 0.02 | 0.00 | 83 | 1011.3 |
| 20260510080127 | 61 | 172 | 0.0 | 0.0 | 0.00 | 0.02 | 0.00 | 83 | 1011.3 |
| 20260510075621 | 61 | 172 | 0.0 | 0.0 | 0.00 | 0.02 | 0.00 | 83 | 1011.2 |
| 20260510075115 | 61 | 172 | 0.0 | 0.0 | 0.00 | 0.02 | 0.00 | 83 | 1011.1 |
| 20260510074609 | 61 | 172 | 0.0 | 0.0 | 0.00 | 0.02 | 0.00 | 82 | 1011.0 |
| 20260510074102 | 61 | 172 | 0.0 | 0.0 | 0.00 | 0.02 | 0.00 | 82 | 1011.1 |
| 20260510073557 | 61 | 172 | 0.0 | 0.0 | 0.00 | 0.02 | 0.00 | 82 | 1011.0 |
| 20260510073051 | 61 | 172 | 0.0 | 0.0 | 0.00 | 0.02 | 0.00 | 82 | 1011.0 |
| 20260510072545 | 61 | 172 | 0.0 | 0.0 | 0.00 | 0.02 | 0.00 | 82 | 1011.1 |
| 20260510072039 | 61 | 172 | 0.0 | 0.0 | 0.00 | 0.02 | 0.00 | 82 | 1011.0 |
| 20260510071533 | 61 | 172 | 0.0 | 0.0 | 0.00 | 0.02 | 0.00 | 82 | 1011.0 |
| 20260510071040 | 61 | 172 | 0.0 | 0.0 | 0.00 | 0.02 | 0.00 | 82 | 1011.0 |
| 20260510070520 | 61 | 172 | 0.0 | 0.0 | 0.00 | 0.02 | 0.00 | 82 | 1010.9 |
| 20260510070014 | 61 | 172 | 0.0 | 0.0 | 0.00 | 0.02 | 0.00 | 82 | 1011.0 |
| 20260510065509 | 61 | 172 | 0.0 | 0.0 | 0.00 | 0.02 | 0.00 | 82 | 1011.1 |
| 20260510065003 | 61 | 172 | 0.0 | 0.0 | 0.00 | 0.02 | 0.00 | 82 | 1011.1 |
| 20260510064457 | 61 | 172 | 0.0 | 0.0 | 0.00 | 0.02 | 0.00 | 82 | 1011.0 |
| 20260510063954 | 61 | 172 | 0.0 | 0.0 | 0.00 | 0.02 | 0.00 | 81 | 1011.0 |
| 20260510063948 | 61 | 172 | 0.0 | 0.0 | 0.00 | 0.02 | 0.00 | 81 | 1011.0 |
| 20260510062939 | 61 | 172 | 0.0 | 0.0 | 0.00 | 0.02 | 0.00 | 81 | 1011.0 |
| 20260510062704 | 61 | 172 | 0.0 | 0.0 | 0.00 | 0.02 | 0.00 | 80 | 1011.1 |
| 20260510061927 | 61 | 172 | 0.0 | 0.0 | 0.00 | 0.02 | 0.00 | 80 | 1011.1 |
| 20260510061421 | 61 | 172 | 0.0 | 0.0 | 0.00 | 0.02 | 0.00 | 80 | 1011.1 |
| 20260510060914 | 61 | 172 | 0.0 | 0.0 | 0.00 | 0.02 | 0.00 | 80 | 1011.1 |
| 20260510060409 | 61 | 172 | 0.0 | 0.0 | 0.00 | 0.02 | 0.00 | 80 | 1011.1 |
| 20260510055903 | 61 | 172 | 0.0 | 0.0 | 0.00 | 0.02 | 0.00 | 80 | 1011.1 |
| 20260510055357 | 61 | 172 | 0.0 | 0.0 | 0.00 | 0.02 | 0.00 | 79 | 1011.2 |
| 20260510054851 | 61 | 172 | 0.0 | 0.0 | 0.00 | 0.02 | 0.00 | 79 | 1011.2 |
| 20260510054345 | 61 | 172 | 0.0 | 0.0 | 0.00 | 0.02 | 0.00 | 79 | 1011.2 |
| 20260510053839 | 61 | 172 | 0.0 | 0.0 | 0.00 | 0.02 | 0.00 | 78 | 1011.3 |
| 20260510053333 | 61 | 172 | 0.0 | 0.0 | 0.00 | 0.02 | 0.00 | 78 | 1011.4 |
| 20260510052827 | 61 | 172 | 0.0 | 0.0 | 0.00 | 0.02 | 0.00 | 77 | 1011.3 |
| 20260510052552 | 61 | 172 | 0.0 | 0.0 | 0.00 | 0.02 | 0.00 | 76 | 1011.4 |
| 20260510051815 | 61 | 172 | 0.0 | 0.0 | 0.00 | 0.02 | 0.00 | 76 | 1011.3 |
| 20260510051309 | 61 | 172 | 0.0 | 0.0 | 0.00 | 0.02 | 0.00 | 75 | 1011.2 |
| 20260510050803 | 61 | 172 | 0.0 | 0.0 | 0.00 | 0.02 | 0.00 | 75 | 1011.3 |
| 20260510050257 | 61 | 172 | 0.0 | 0.0 | 0.00 | 0.02 | 0.00 | 75 | 1011.3 |
| 20260510045750 | 62 | 172 | 0.0 | 0.0 | 0.00 | 0.02 | 0.00 | 74 | 1011.3 |
| 20260510045245 | 62 | 172 | 0.0 | 0.0 | 0.00 | 0.02 | 0.00 | 74 | 1011.2 |
| 20260510044739 | 62 | 172 | 0.0 | 0.0 | 0.00 | 0.02 | 0.00 | 75 | 1011.3 |
| 20260510044233 | 62 | 172 | 0.0 | 0.0 | 0.00 | 0.02 | 0.00 | 74 | 1011.2 |
| 20260510043727 | 62 | 172 | 0.0 | 0.0 | 0.00 | 0.02 | 0.00 | 73 | 1011.1 |
| 20260510043221 | 62 | 172 | 0.0 | 0.0 | 0.00 | 0.02 | 0.00 | 73 | 1011.1 |
| 20260510042946 | 62 | 172 | 0.0 | 0.0 | 0.00 | 0.02 | 0.00 | 73 | 1011.1 |
| 20260510042209 | 62 | 172 | 0.0 | 0.0 | 0.00 | 0.02 | 0.00 | 72 | 1011.1 |
| 20260510041703 | 62 | 172 | 0.0 | 0.0 | 0.00 | 0.02 | 0.00 | 72 | 1011.1 |
| 20260510041157 | 63 | 172 | 0.0 | 0.0 | 0.00 | 0.02 | 0.00 | 72 | 1011.1 |
| 20260510040651 | 63 | 172 | 0.0 | 0.0 | 0.00 | 0.02 | 0.00 | 72 | 1011.1 |
| 20260510040145 | 63 | 172 | 0.0 | 0.0 | 0.00 | 0.02 | 0.00 | 72 | 1011.0 |
| 20260510035639 | 63 | 172 | 0.0 | 0.0 | 0.00 | 0.02 | 0.02 | 72 | 1011.0 |
| 20260510035133 | 63 | 172 | 0.0 | 0.0 | 0.00 | 0.02 | 0.02 | 71 | 1010.9 |
| 20260510034627 | 64 | 172 | 0.0 | 0.0 | 0.00 | 0.02 | 0.02 | 71 | 1010.9 |
| 20260510034120 | 64 | 172 | 0.0 | 0.0 | 0.00 | 0.02 | 0.02 | 71 | 1010.8 |
| 20260510033615 | 64 | 172 | 0.0 | 0.0 | 0.00 | 0.02 | 0.02 | 71 | 1010.7 |
| 20260510033109 | 64 | 172 | 0.0 | 0.0 | 0.00 | 0.02 | 0.02 | 70 | 1010.9 |
| 20260510032603 | 64 | 172 | 0.0 | 0.0 | 0.00 | 0.02 | 0.02 | 70 | 1010.8 |
| 20260510032057 | 65 | 172 | 0.0 | 0.0 | 0.00 | 0.02 | 0.02 | 69 | 1010.8 |
| 20260510031551 | 65 | 172 | 0.0 | 0.0 | 0.00 | 0.02 | 0.02 | 70 | 1010.8 |
| 20260510031045 | 65 | 172 | 0.0 | 0.0 | 0.00 | 0.02 | 0.02 | 69 | 1010.8 |
| 20260510030810 | 65 | 172 | 0.0 | 0.0 | 0.00 | 0.02 | 0.02 | 68 | 1010.7 |
| 20260510030033 | 65 | 172 | 0.0 | 0.0 | 0.00 | 0.02 | 0.02 | 68 | 1010.6 |
| 20260510025527 | 65 | 172 | 0.0 | 0.0 | 0.00 | 0.02 | 0.02 | 69 | 1010.6 |
| 20260510025021 | 66 | 172 | 0.0 | 0.0 | 0.00 | 0.02 | 0.02 | 68 | 1010.6 |
| 20260510024514 | 66 | 172 | 0.0 | 0.0 | 0.00 | 0.02 | 0.02 | 67 | 1010.6 |
| 20260510024009 | 66 | 172 | 0.0 | 0.0 | 0.00 | 0.02 | 0.02 | 67 | 1010.6 |
| 20260510023503 | 66 | 172 | 0.0 | 0.0 | 0.00 | 0.02 | 0.02 | 67 | 1010.6 |
| 20260510022957 | 66 | 172 | 0.0 | 0.0 | 0.00 | 0.02 | 0.02 | 67 | 1010.6 |
| 20260510022722 | 67 | 172 | 0.0 | 0.0 | 0.00 | 0.02 | 0.02 | 66 | 1010.5 |
| 20260510021945 | 67 | 172 | 0.0 | 0.0 | 0.00 | 0.02 | 0.02 | 66 | 1010.6 |
| 20260510021709 | 67 | 172 | 0.0 | 0.0 | 0.00 | 0.02 | 0.02 | 66 | 1010.5 |
| 20260510020933 | 67 | 172 | 0.0 | 0.0 | 0.00 | 0.02 | 0.02 | 66 | 1010.5 |
| 20260510020659 | 67 | 172 | 0.0 | 0.0 | 0.00 | 0.02 | 0.02 | 65 | 1010.5 |
| 20260510015921 | 68 | 172 | 0.0 | 0.0 | 0.00 | 0.02 | 0.02 | 65 | 1010.4 |
| 20260510015415 | 68 | 172 | 0.0 | 0.0 | 0.00 | 0.02 | 0.02 | 65 | 1010.4 |
| 20260510014909 | 68 | 172 | 0.0 | 0.0 | 0.00 | 0.02 | 0.02 | 65 | 1010.5 |
| 20260510014403 | 68 | 172 | 0.0 | 0.0 | 0.00 | 0.02 | 0.02 | 64 | 1010.6 |
| 20260510013857 | 69 | 172 | 0.0 | 0.0 | 0.00 | 0.02 | 0.02 | 64 | 1010.7 |
| 20260510013622 | 69 | 172 | 0.0 | 0.0 | 0.00 | 0.02 | 0.02 | 64 | 1010.6 |
| 20260510012845 | 69 | 172 | 0.0 | 0.0 | 0.00 | 0.02 | 0.02 | 64 | 1010.5 |
| 20260510012339 | 69 | 172 | 0.0 | 0.0 | 0.00 | 0.02 | 0.02 | 64 | 1010.5 |
| 20260510011833 | 69 | 172 | 0.0 | 0.0 | 0.00 | 0.02 | 0.02 | 64 | 1010.5 |
| 20260510011327 | 69 | 172 | 0.0 | 0.0 | 0.00 | 0.02 | 0.02 | 64 | 1010.5 |
| 20260510011052 | 69 | 172 | 0.0 | 0.0 | 0.00 | 0.02 | 0.02 | 63 | 1010.3 |
| 20260510010558 | 70 | 172 | 0.0 | 0.0 | 0.00 | 0.02 | 0.02 | 63 | 1010.1 |
| 20260510005809 | 70 | 172 | 0.0 | 0.0 | 0.00 | 0.02 | 0.02 | 62 | 1010.0 |
| 20260510005534 | 70 | 172 | 0.0 | 0.0 | 0.00 | 0.02 | 0.02 | 62 | 1010.1 |
| 20260510004757 | 70 | 172 | 0.0 | 0.0 | 0.00 | 0.02 | 0.02 | 62 | 1010.1 |
| 20260510004250 | 71 | 172 | 0.0 | 0.0 | 0.00 | 0.02 | 0.02 | 62 | 1010.0 |
| 20260510003745 | 71 | 172 | 0.0 | 0.0 | 0.00 | 0.02 | 0.02 | 61 | 1010.0 |
| 20260510003510 | 71 | 172 | 0.0 | 0.0 | 0.00 | 0.02 | 0.02 | 61 | 1010.0 |
| 20260510003004 | 71 | 172 | 0.0 | 0.0 | 0.00 | 0.02 | 0.02 | 60 | 1009.8 |
| 20260510002227 | 71 | 172 | 0.0 | 0.0 | 0.00 | 0.02 | 0.02 | 60 | 1009.8 |
| 20260510001721 | 71 | 172 | 0.0 | 0.0 | 0.00 | 0.02 | 0.02 | 60 | 1009.8 |
| 20260510001215 | 72 | 172 | 0.0 | 0.0 | 0.00 | 0.02 | 0.02 | 59 | 1009.6 |
| 20260510000709 | 72 | 172 | 0.0 | 0.0 | 0.00 | 0.02 | 0.02 | 59 | 1009.6 |
| 20260510000434 | 72 | 172 | 0.0 | 0.0 | 0.00 | 0.02 | 0.02 | 58 | 1009.6 |
| 20260509235657 | 72 | 172 | 0.0 | 0.0 | 0.00 | 0.02 | 0.02 | 58 | 1009.6 |
| 20260509235151 | 72 | 172 | 0.0 | 2.0 | 0.00 | 0.02 | 0.02 | 58 | 1009.5 |
| 20260509234918 | 72 | 172 | 0.0 | 2.0 | 0.00 | 0.02 | 0.02 | 58 | 1009.4 |
| 20260509234417 | 72 | 207 | 0.0 | 1.0 | 0.00 | 0.02 | 0.02 | 58 | 1009.4 |
| 20260509233918 | 73 | 207 | 0.0 | 3.0 | 0.00 | 0.02 | 0.02 | 57 | 1009.4 |
| 20260509233147 | 73 | 196 | 0.0 | 3.0 | 0.00 | 0.02 | 0.02 | 57 | 1009.4 |
| 20260509232647 | 73 | 207 | 0.0 | 2.0 | 0.00 | 0.02 | 0.02 | 57 | 1009.4 |
| 20260509232146 | 73 | 194 | 0.0 | 2.0 | 0.00 | 0.02 | 0.02 | 56 | 1009.4 |
| 20260509231645 | 73 | 215 | 0.0 | 4.0 | 0.00 | 0.02 | 0.02 | 56 | 1009.4 |
| 20260509231144 | 74 | 196 | 1.0 | 4.0 | 0.00 | 0.02 | 0.02 | 56 | 1009.4 |
| 20260509230913 | 74 | 196 | 0.0 | 2.0 | 0.00 | 0.02 | 0.02 | 55 | 1009.4 |
| 20260509230142 | 74 | 207 | 0.0 | 3.0 | 0.00 | 0.02 | 0.02 | 55 | 1009.3 |
| 20260509225639 | 74 | 201 | 0.0 | 3.0 | 0.00 | 0.02 | 0.02 | 55 | 1009.3 |
| 20260509225137 | 74 | 130 | 0.0 | 2.0 | 0.00 | 0.02 | 0.02 | 55 | 1009.4 |
| 20260509224637 | 74 | 211 | 0.0 | 2.0 | 0.00 | 0.02 | 0.02 | 54 | 1009.4 |
| 20260509224137 | 74 | 207 | 0.0 | 2.0 | 0.00 | 0.02 | 0.02 | 53 | 1009.3 |
| 20260509223637 | 75 | 211 | 1.0 | 3.0 | 0.00 | 0.02 | 0.02 | 53 | 1009.4 |
| 20260509223135 | 75 | 214 | 1.0 | 4.0 | 0.00 | 0.02 | 0.02 | 52 | 1009.3 |
| 20260509222634 | 75 | 196 | 1.0 | 4.0 | 0.00 | 0.02 | 0.02 | 51 | 1009.3 |
| 20260509222135 | 75 | 234 | 0.0 | 3.0 | 0.00 | 0.02 | 0.02 | 52 | 1009.3 |
| 20260509221639 | 75 | 208 | 1.0 | 3.0 | 0.00 | 0.02 | 0.02 | 51 | 1009.2 |
| 20260509221631 | 75 | 203 | 0.0 | 3.0 | 0.00 | 0.02 | 0.02 | 52 | 1009.2 |
| 20260509220628 | 76 | 211 | 1.0 | 3.0 | 0.00 | 0.02 | 0.02 | 50 | 1009.2 |
| 20260509220129 | 75 | 216 | 1.0 | 3.0 | 0.00 | 0.02 | 0.02 | 50 | 1009.3 |
| 20260509215629 | 75 | 200 | 0.0 | 3.0 | 0.00 | 0.02 | 0.02 | 51 | 1009.3 |
| 20260509215131 | 75 | 193 | 0.0 | 3.0 | 0.00 | 0.02 | 0.02 | 52 | 1009.3 |
| 20260509214629 | 75 | 299 | 0.0 | 3.0 | 0.00 | 0.02 | 0.02 | 50 | 1009.1 |
| 20260509214130 | 76 | 213 | 0.0 | 2.0 | 0.00 | 0.02 | 0.02 | 50 | 1009.1 |
| 20260509213628 | 76 | 285 | 0.0 | 2.0 | 0.00 | 0.02 | 0.02 | 50 | 1009.0 |
| 20260509213128 | 76 | 177 | 0.0 | 2.0 | 0.00 | 0.02 | 0.02 | 50 | 1009.1 |
| 20260509212858 | 76 | 338 | 0.0 | 2.0 | 0.00 | 0.02 | 0.02 | 51 | 1009.0 |
| 20260509212358 | 75 | 329 | 0.0 | 2.0 | 0.00 | 0.02 | 0.02 | 53 | 1009.0 |
| 20260509211624 | 76 | 242 | 0.0 | 7.0 | 0.00 | 0.02 | 0.02 | 50 | 1009.0 |
| 20260509211126 | 76 | 196 | 1.0 | 7.0 | 0.00 | 0.02 | 0.02 | 49 | 1009.0 |
| 20260509210625 | 76 | 230 | 1.0 | 3.0 | 0.00 | 0.02 | 0.02 | 48 | 1009.0 |
| 20260509210119 | 76 | 213 | 1.0 | 3.0 | 0.00 | 0.02 | 0.02 | 50 | 1009.1 |
| 20260509205613 | 76 | 230 | 1.0 | 4.0 | 0.00 | 0.02 | 0.02 | 49 | 1009.2 |
| 20260509205107 | 76 | 167 | 1.0 | 13.0 | 0.00 | 0.02 | 0.02 | 47 | 1009.2 |
| 20260509204832 | 78 | 321 | 0.0 | 13.0 | 0.00 | 0.02 | 0.02 | 48 | 1009.0 |
| 20260509204055 | 77 | 205 | 0.0 | 5.0 | 0.00 | 0.02 | 0.02 | 50 | 1009.1 |
| 20260509203549 | 77 | 156 | 1.0 | 5.0 | 0.00 | 0.02 | 0.02 | 51 | 1009.1 |
| 20260509203314 | 77 | 187 | 1.0 | 5.0 | 0.00 | 0.02 | 0.02 | 50 | 1009.1 |
| 20260509202537 | 76 | 278 | 1.0 | 3.0 | 0.00 | 0.02 | 0.02 | 48 | 1009.0 |
| 20260509202306 | 77 | 174 | 1.0 | 3.0 | 0.00 | 0.02 | 0.02 | 47 | 1008.9 |
| 20260509201525 | 76 | 182 | 0.0 | 3.0 | 0.00 | 0.02 | 0.02 | 48 | 1009.0 |
| 20260509201019 | 77 | 160 | 1.0 | 8.0 | 0.00 | 0.02 | 0.02 | 49 | 1009.1 |
| 20260509200516 | 76 | 223 | 1.0 | 8.0 | 0.00 | 0.02 | 0.02 | 48 | 1008.9 |
| 20260509200018 | 76 | 146 | 1.0 | 5.0 | 0.00 | 0.02 | 0.02 | 47 | 1009.0 |
| 20260509195516 | 76 | 106 | 1.0 | 5.0 | 0.00 | 0.02 | 0.02 | 46 | 1009.1 |
| 20260509195014 | 77 | 211 | 1.0 | 3.0 | 0.00 | 0.02 | 0.02 | 46 | 1009.2 |
| 20260509194515 | 76 | 207 | 1.0 | 3.0 | 0.00 | 0.02 | 0.02 | 45 | 1009.1 |
| 20260509194015 | 76 | 209 | 1.0 | 3.0 | 0.00 | 0.02 | 0.02 | 45 | 1009.2 |
| 20260509193514 | 76 | 217 | 1.0 | 4.0 | 0.00 | 0.02 | 0.02 | 45 | 1009.3 |
| 20260509193012 | 76 | 24 | 1.0 | 6.0 | 0.00 | 0.02 | 0.02 | 48 | 1009.4 |
| 20260509192513 | 76 | 336 | 1.0 | 6.0 | 0.00 | 0.02 | 0.02 | 48 | 1009.4 |
| 20260509192241 | 76 | 212 | 2.0 | 6.0 | 0.00 | 0.02 | 0.02 | 48 | 1009.5 |
| 20260509191511 | 76 | 230 | 2.0 | 6.0 | 0.00 | 0.02 | 0.02 | 47 | 1009.6 |
| 20260509191242 | 76 | 277 | 2.0 | 9.0 | 0.00 | 0.02 | 0.02 | 49 | 1009.6 |
| 20260509190510 | 76 | 188 | 2.0 | 9.0 | 0.00 | 0.02 | 0.02 | 49 | 1009.7 |
| 20260509190011 | 75 | 225 | 2.0 | 5.0 | 0.00 | 0.02 | 0.02 | 46 | 1009.7 |
| 20260509185509 | 75 | 211 | 1.0 | 5.0 | 0.00 | 0.02 | 0.02 | 48 | 1009.8 |
| 20260509185009 | 76 | 30 | 2.0 | 6.0 | 0.00 | 0.02 | 0.02 | 48 | 1009.7 |
| 20260509184509 | 76 | 204 | 2.0 | 6.0 | 0.00 | 0.02 | 0.02 | 45 | 1009.8 |
| 20260509184009 | 76 | 216 | 2.0 | 5.0 | 0.00 | 0.02 | 0.02 | 46 | 1009.7 |
| 20260509183503 | 75 | 215 | 2.0 | 5.0 | 0.00 | 0.02 | 0.02 | 49 | 1009.8 |
| 20260509182957 | 76 | 207 | 1.0 | 5.0 | 0.00 | 0.02 | 0.02 | 48 | 1009.9 |
| 20260509182451 | 76 | 227 | 1.0 | 4.0 | 0.00 | 0.02 | 0.02 | 50 | 1009.7 |
| 20260509181945 | 75 | 240 | 1.0 | 5.0 | 0.00 | 0.02 | 0.02 | 49 | 1009.7 |
| 20260509181439 | 75 | 229 | 1.0 | 5.0 | 0.00 | 0.02 | 0.02 | 52 | 1009.7 |
| 20260509180937 | 75 | 235 | 1.0 | 4.0 | 0.00 | 0.02 | 0.02 | 52 | 1009.7 |
| 20260509180436 | 75 | 258 | 1.0 | 4.0 | 0.00 | 0.02 | 0.02 | 53 | 1009.9 |
| 20260509175936 | 75 | 217 | 2.0 | 7.0 | 0.00 | 0.02 | 0.02 | 49 | 1010.1 |
| 20260509175437 | 75 | 221 | 2.0 | 7.0 | 0.00 | 0.02 | 0.02 | 51 | 1010.2 |
| 20260509174935 | 76 | 182 | 1.0 | 4.0 | 0.00 | 0.02 | 0.02 | 51 | 1010.3 |
| 20260509174434 | 75 | 355 | 2.0 | 6.0 | 0.00 | 0.02 | 0.02 | 52 | 1010.2 |
| 20260509173935 | 75 | 238 | 2.0 | 6.0 | 0.00 | 0.02 | 0.02 | 54 | 1010.4 |
| 20260509173433 | 75 | 128 | 2.0 | 7.0 | 0.00 | 0.02 | 0.02 | 57 | 1010.5 |
| 20260509172931 | 75 | 234 | 2.0 | 7.0 | 0.00 | 0.02 | 0.02 | 56 | 1010.6 |
| 20260509172431 | 75 | 180 | 2.0 | 5.0 | 0.00 | 0.02 | 0.02 | 56 | 1010.7 |
| 20260509172202 | 74 | 234 | 2.0 | 4.0 | 0.00 | 0.02 | 0.02 | 56 | 1010.7 |
| 20260509171659 | 74 | 214 | 2.0 | 4.0 | 0.00 | 0.02 | 0.02 | 57 | 1010.6 |
| 20260509170929 | 74 | 205 | 2.0 | 7.0 | 0.00 | 0.02 | 0.02 | 57 | 1010.5 |
| 20260509170426 | 75 | 205 | 2.0 | 7.0 | 0.00 | 0.02 | 0.02 | 56 | 1010.5 |
| 20260509165927 | 75 | 125 | 2.0 | 6.0 | 0.00 | 0.02 | 0.02 | 57 | 1010.4 |
| 20260509165426 | 74 | 214 | 2.0 | 6.0 | 0.00 | 0.02 | 0.02 | 56 | 1010.5 |
| 20260509164927 | 74 | 205 | 2.0 | 7.0 | 0.00 | 0.02 | 0.02 | 57 | 1010.5 |
| 20260509164656 | 74 | 331 | 2.0 | 7.0 | 0.00 | 0.02 | 0.02 | 60 | 1010.7 |
| 20260509164155 | 74 | 163 | 3.0 | 6.0 | 0.00 | 0.02 | 0.02 | 62 | 1010.7 |
| 20260509163423 | 73 | 182 | 3.0 | 6.0 | 0.00 | 0.02 | 0.02 | 67 | 1010.8 |
| 20260509162922 | 74 | 211 | 2.0 | 6.0 | 0.00 | 0.02 | 0.02 | 64 | 1010.9 |
| 20260509162421 | 73 | 143 | 2.0 | 6.0 | 0.00 | 0.02 | 0.02 | 67 | 1011.0 |
| 20260509161921 | 72 | 150 | 2.0 | 6.0 | 0.00 | 0.02 | 0.02 | 65 | 1011.2 |
| 20260509161651 | 73 | 199 | 2.0 | 7.0 | 0.00 | 0.02 | 0.02 | 68 | 1011.2 |
| 20260509160922 | 71 | 208 | 3.0 | 7.0 | 0.00 | 0.02 | 0.02 | 69 | 1011.4 |
| 20260509160651 | 71 | 212 | 2.0 | 6.0 | 0.00 | 0.02 | 0.02 | 67 | 1011.4 |